owner,sensor,date,latitude,longitude,vertical_datum,wind_speed,wind_to_direction,wind_speed_of_gust,qcFlag 
WAVCIS,ioos:station:WAVCIS:CSI09:1,2009-09-01T00:00:00Z,29.1015,-89.9782,0.0,2.999,91.0,,'11111222,11111222,99999999' 
WAVCIS,ioos:station:WAVCIS:CSI09:1,2009-09-01T01:00:00Z,29.1015,-89.9782,0.0,1.304,85.0,,'11111222,11111222,99999999' 
WAVCIS,ioos:station:WAVCIS:CSI09:1,2009-09-01T02:00:00Z,29.1015,-89.9782,0.0,1.16,85.0,,'11111222,11111222,99999999' 
WAVCIS,ioos:station:WAVCIS:CSI09:1,2009-09-01T03:00:00Z,29.1015,-89.9782,0.0,0.708,11.0,,'11111222,11111222,99999999' 
WAVCIS,ioos:station:WAVCIS:CSI09:1,2009-09-01T04:00:00Z,29.1015,-89.9782,0.0,1.713,15.0,,'11111222,11111222,99999999' 
WAVCIS,ioos:station:WAVCIS:CSI09:1,2009-09-01T05:00:00Z,29.1015,-89.9782,0.0,3.703,6.0,,'11111222,11111222,99999999' 
WAVCIS,ioos:station:WAVCIS:CSI09:1,2009-09-01T06:00:00Z,29.1015,-89.9782,0.0,4.489,0.0,,'11111222,11111222,99999999' 
WAVCIS,ioos:station:WAVCIS:CSI09:1,2009-09-01T07:00:00Z,29.1015,-89.9782,0.0,5.839,21.0,,'11111222,11111222,99999999' 
WAVCIS,ioos:station:WAVCIS:CSI09:1,2009-09-01T08:00:00Z,29.1015,-89.9782,0.0,6.446,29.0,,'11111222,11111222,99999999' 
WAVCIS,ioos:station:WAVCIS:CSI09:1,2009-09-01T09:00:00Z,29.1015,-89.9782,0.0,5.853,19.0,,'11111222,11111222,99999999' 
WAVCIS,ioos:station:WAVCIS:CSI09:1,2009-09-01T10:00:00Z,29.1015,-89.9782,0.0,5.472,25.0,,'11111222,11111222,99999999' 
WAVCIS,ioos:station:WAVCIS:CSI09:1,2009-09-01T11:00:00Z,29.1015,-89.9782,0.0,5.533,32.0,,'11111222,11111222,99999999' 
WAVCIS,ioos:station:WAVCIS:CSI09:1,2009-09-01T12:00:00Z,29.1015,-89.9782,0.0,6.153,32.0,,'11111222,11111222,99999999' 
WAVCIS,ioos:station:WAVCIS:CSI09:1,2009-09-01T13:00:00Z,29.1015,-89.9782,0.0,8.32,17.0,,'11111222,11111222,99999999' 
WAVCIS,ioos:station:WAVCIS:CSI09:1,2009-09-01T14:00:00Z,29.1015,-89.9782,0.0,8.9,24.0,,'11111222,11111222,99999999' 
WAVCIS,ioos:station:WAVCIS:CSI09:1,2009-09-01T15:00:00Z,29.1015,-89.9782,0.0,7.51,36.0,,'11111222,11111222,99999999' 
WAVCIS,ioos:station:WAVCIS:CSI09:1,2009-09-01T16:00:00Z,29.1015,-89.9782,0.0,6.343,25.0,,'11111222,11111222,99999999' 
WAVCIS,ioos:station:WAVCIS:CSI09:1,2009-09-01T17:00:00Z,29.1015,-89.9782,0.0,5.015,34.0,,'11111222,11111222,99999999' 
WAVCIS,ioos:station:WAVCIS:CSI09:1,2009-09-01T18:00:00Z,29.1015,-89.9782,0.0,4.491,29.0,,'11111222,11111222,99999999' 
WAVCIS,ioos:station:WAVCIS:CSI09:1,2009-09-01T19:00:00Z,29.1015,-89.9782,0.0,4.665,24.0,,'11111222,11111222,99999999' 
WAVCIS,ioos:station:WAVCIS:CSI09:1,2009-09-01T20:00:00Z,29.1015,-89.9782,0.0,4.435,16.0,,'11111222,11111222,99999999' 
WAVCIS,ioos:station:WAVCIS:CSI09:1,2009-09-01T21:00:00Z,29.1015,-89.9782,0.0,4.962,20.0,,'11111222,11111222,99999999' 
WAVCIS,ioos:station:WAVCIS:CSI09:1,2009-09-01T22:00:00Z,29.1015,-89.9782,0.0,4.513,26.0,,'11111222,11111222,99999999' 
WAVCIS,ioos:station:WAVCIS:CSI09:1,2009-09-01T23:00:00Z,29.1015,-89.9782,0.0,3.729,29.0,,'11111222,11111222,99999999' 
WAVCIS,ioos:station:WAVCIS:CSI09:1,2009-09-02T00:00:00Z,29.1015,-89.9782,0.0,3.998,21.0,,'11111222,11111222,99999999' 
WAVCIS,ioos:station:WAVCIS:CSI09:1,2009-09-02T01:00:00Z,29.1015,-89.9782,0.0,4.602,345.0,,'11111222,11111222,99999999' 
WAVCIS,ioos:station:WAVCIS:CSI09:1,2009-09-02T02:00:00Z,29.1015,-89.9782,0.0,2.415,338.0,,'11111222,11111222,99999999' 
WAVCIS,ioos:station:WAVCIS:CSI09:1,2009-09-02T03:00:00Z,29.1015,-89.9782,0.0,2.995,342.0,,'11111222,11111222,99999999' 
WAVCIS,ioos:station:WAVCIS:CSI09:1,2009-09-02T04:00:00Z,29.1015,-89.9782,0.0,3.273,330.0,,'11111222,11111222,99999999' 
WAVCIS,ioos:station:WAVCIS:CSI09:1,2009-09-02T05:00:00Z,29.1015,-89.9782,0.0,3.48,329.0,,'11111222,11111222,99999999' 
WAVCIS,ioos:station:WAVCIS:CSI09:1,2009-09-02T06:00:00Z,29.1015,-89.9782,0.0,4.516,311.0,,'11111222,11111222,99999999' 
WAVCIS,ioos:station:WAVCIS:CSI09:1,2009-09-02T07:00:00Z,29.1015,-89.9782,0.0,5.93,327.0,,'11111222,11111222,99999999' 
WAVCIS,ioos:station:WAVCIS:CSI09:1,2009-09-02T08:00:00Z,29.1015,-89.9782,0.0,6.314,344.0,,'11111222,11111222,99999999' 
WAVCIS,ioos:station:WAVCIS:CSI09:1,2009-09-02T09:00:00Z,29.1015,-89.9782,0.0,6.61,356.0,,'11111222,11111222,99999999' 
WAVCIS,ioos:station:WAVCIS:CSI09:1,2009-09-02T10:00:00Z,29.1015,-89.9782,0.0,8.29,28.0,,'11111222,11111222,99999999' 
WAVCIS,ioos:station:WAVCIS:CSI09:1,2009-09-02T11:00:00Z,29.1015,-89.9782,0.0,9.27,33.0,,'11111222,11111222,99999999' 
WAVCIS,ioos:station:WAVCIS:CSI09:1,2009-09-02T12:00:00Z,29.1015,-89.9782,0.0,8.44,42.0,,'11111222,11111222,99999999' 
WAVCIS,ioos:station:WAVCIS:CSI09:1,2009-09-02T13:00:00Z,29.1015,-89.9782,0.0,8.39,38.0,,'11111222,11111222,99999999' 
WAVCIS,ioos:station:WAVCIS:CSI09:1,2009-09-02T14:00:00Z,29.1015,-89.9782,0.0,8.12,49.0,,'11111222,11111222,99999999' 
WAVCIS,ioos:station:WAVCIS:CSI09:1,2009-09-02T15:00:00Z,29.1015,-89.9782,0.0,6.847,56.0,,'11111222,11111222,99999999' 
WAVCIS,ioos:station:WAVCIS:CSI09:1,2009-09-02T16:00:00Z,29.1015,-89.9782,0.0,6.133,59.0,,'11111222,11111222,99999999' 
WAVCIS,ioos:station:WAVCIS:CSI09:1,2009-09-02T17:00:00Z,29.1015,-89.9782,0.0,5.292,59.0,,'11111222,11111222,99999999' 
WAVCIS,ioos:station:WAVCIS:CSI09:1,2009-09-02T18:00:00Z,29.1015,-89.9782,0.0,4.566,45.0,,'11111222,11111222,99999999' 
WAVCIS,ioos:station:WAVCIS:CSI09:1,2009-09-02T19:00:00Z,29.1015,-89.9782,0.0,4.381,29.0,,'11111222,11111222,99999999' 
WAVCIS,ioos:station:WAVCIS:CSI09:1,2009-09-02T20:00:00Z,29.1015,-89.9782,0.0,3.513,31.0,,'11111222,11111222,99999999' 
WAVCIS,ioos:station:WAVCIS:CSI09:1,2009-09-02T21:00:00Z,29.1015,-89.9782,0.0,2.548,33.0,,'11111222,11111222,99999999' 
WAVCIS,ioos:station:WAVCIS:CSI09:1,2009-09-02T22:00:00Z,29.1015,-89.9782,0.0,3.551,27.0,,'11111222,11111222,99999999' 
WAVCIS,ioos:station:WAVCIS:CSI09:1,2009-09-02T23:00:00Z,29.1015,-89.9782,0.0,3.121,32.0,,'11111222,11111222,99999999' 
WAVCIS,ioos:station:WAVCIS:CSI09:1,2009-09-03T00:00:00Z,29.1015,-89.9782,0.0,2.926,18.0,,'11111222,11111222,99999999' 
WAVCIS,ioos:station:WAVCIS:CSI09:1,2009-09-03T01:00:00Z,29.1015,-89.9782,0.0,3.072,357.0,,'11111222,11111222,99999999' 
WAVCIS,ioos:station:WAVCIS:CSI09:1,2009-09-03T02:00:00Z,29.1015,-89.9782,0.0,2.358,341.0,,'11111222,11111222,99999999' 
WAVCIS,ioos:station:WAVCIS:CSI09:1,2009-09-03T03:00:00Z,29.1015,-89.9782,0.0,2.432,316.0,,'11111222,11111222,99999999' 
WAVCIS,ioos:station:WAVCIS:CSI09:1,2009-09-03T04:00:00Z,29.1015,-89.9782,0.0,3.186,322.0,,'11111222,11111222,99999999' 
WAVCIS,ioos:station:WAVCIS:CSI09:1,2009-09-03T05:00:00Z,29.1015,-89.9782,0.0,4.909,321.0,,'11111222,11111222,99999999' 
WAVCIS,ioos:station:WAVCIS:CSI09:1,2009-09-03T06:00:00Z,29.1015,-89.9782,0.0,6.771,311.0,,'11111222,11111222,99999999' 
WAVCIS,ioos:station:WAVCIS:CSI09:1,2009-09-03T07:00:00Z,29.1015,-89.9782,0.0,6.053,308.0,,'11111222,11111222,99999999' 
WAVCIS,ioos:station:WAVCIS:CSI09:1,2009-09-03T08:00:00Z,29.1015,-89.9782,0.0,5.4,329.0,,'11111222,11111222,99999999' 
WAVCIS,ioos:station:WAVCIS:CSI09:1,2009-09-03T09:00:00Z,29.1015,-89.9782,0.0,4.471,333.0,,'11111222,11111222,99999999' 
WAVCIS,ioos:station:WAVCIS:CSI09:1,2009-09-03T10:00:00Z,29.1015,-89.9782,0.0,4.525,342.0,,'11111222,11111222,99999999' 
WAVCIS,ioos:station:WAVCIS:CSI09:1,2009-09-03T11:00:00Z,29.1015,-89.9782,0.0,4.017,19.0,,'11111222,11111222,99999999' 
WAVCIS,ioos:station:WAVCIS:CSI09:1,2009-09-03T12:00:00Z,29.1015,-89.9782,0.0,5.777,24.0,,'11111222,11111222,99999999' 
WAVCIS,ioos:station:WAVCIS:CSI09:1,2009-09-03T13:00:00Z,29.1015,-89.9782,0.0,5.97,13.0,,'11111222,11111222,99999999' 
WAVCIS,ioos:station:WAVCIS:CSI09:1,2009-09-03T14:00:00Z,29.1015,-89.9782,0.0,6.988,14.0,,'11111222,11111222,99999999' 
WAVCIS,ioos:station:WAVCIS:CSI09:1,2009-09-03T15:00:00Z,29.1015,-89.9782,0.0,7.76,13.0,,'11111222,11111222,99999999' 
WAVCIS,ioos:station:WAVCIS:CSI09:1,2009-09-03T16:00:00Z,29.1015,-89.9782,0.0,7.83,15.0,,'11111222,11111222,99999999' 
WAVCIS,ioos:station:WAVCIS:CSI09:1,2009-09-03T17:00:00Z,29.1015,-89.9782,0.0,7.13,23.0,,'11111222,11111222,99999999' 
WAVCIS,ioos:station:WAVCIS:CSI09:1,2009-09-03T18:00:00Z,29.1015,-89.9782,0.0,7.09,50.0,,'11111222,11111222,99999999' 
WAVCIS,ioos:station:WAVCIS:CSI09:1,2009-09-03T19:00:00Z,29.1015,-89.9782,0.0,6.219,41.0,,'11111222,11111222,99999999' 
WAVCIS,ioos:station:WAVCIS:CSI09:1,2009-09-03T20:00:00Z,29.1015,-89.9782,0.0,6.488,42.0,,'11111222,11111222,99999999' 
WAVCIS,ioos:station:WAVCIS:CSI09:1,2009-09-03T21:00:00Z,29.1015,-89.9782,0.0,7.25,29.0,,'11111222,11111222,99999999' 
WAVCIS,ioos:station:WAVCIS:CSI09:1,2009-09-03T22:00:00Z,29.1015,-89.9782,0.0,7.34,26.0,,'11111222,11111222,99999999' 
WAVCIS,ioos:station:WAVCIS:CSI09:1,2009-09-03T23:00:00Z,29.1015,-89.9782,0.0,6.824,37.0,,'11111222,11111222,99999999' 
WAVCIS,ioos:station:WAVCIS:CSI09:1,2009-09-04T00:00:00Z,29.1015,-89.9782,0.0,6.125,49.0,,'11111222,11111222,99999999' 
WAVCIS,ioos:station:WAVCIS:CSI09:1,2009-09-04T01:00:00Z,29.1015,-89.9782,0.0,6.104,60.0,,'11111222,11111222,99999999' 
WAVCIS,ioos:station:WAVCIS:CSI09:1,2009-09-04T02:00:00Z,29.1015,-89.9782,0.0,6.703,59.0,,'11111222,11111222,99999999' 
WAVCIS,ioos:station:WAVCIS:CSI09:1,2009-09-04T03:00:00Z,29.1015,-89.9782,0.0,7.15,54.0,,'11111222,11111222,99999999' 
WAVCIS,ioos:station:WAVCIS:CSI09:1,2009-09-04T04:00:00Z,29.1015,-89.9782,0.0,7.19,65.0,,'11111222,11111222,99999999' 
WAVCIS,ioos:station:WAVCIS:CSI09:1,2009-09-04T05:00:00Z,29.1015,-89.9782,0.0,6.801,63.0,,'11111222,11111222,99999999' 
WAVCIS,ioos:station:WAVCIS:CSI09:1,2009-09-04T06:00:00Z,29.1015,-89.9782,0.0,5.424,83.0,,'11111222,11111222,99999999' 
WAVCIS,ioos:station:WAVCIS:CSI09:1,2009-09-04T07:00:00Z,29.1015,-89.9782,0.0,5.117,121.0,,'11111222,11111222,99999999' 
WAVCIS,ioos:station:WAVCIS:CSI09:1,2009-09-04T08:00:00Z,29.1015,-89.9782,0.0,3.487,116.0,,'11111222,11111222,99999999' 
WAVCIS,ioos:station:WAVCIS:CSI09:1,2009-09-04T09:00:00Z,29.1015,-89.9782,0.0,2.378,98.0,,'11111222,11111222,99999999' 
WAVCIS,ioos:station:WAVCIS:CSI09:1,2009-09-04T10:00:00Z,29.1015,-89.9782,0.0,3.747,67.0,,'11111222,11111222,99999999' 
WAVCIS,ioos:station:WAVCIS:CSI09:1,2009-09-04T11:00:00Z,29.1015,-89.9782,0.0,3.636,57.0,,'11111222,11111222,99999999' 
WAVCIS,ioos:station:WAVCIS:CSI09:1,2009-09-04T12:00:00Z,29.1015,-89.9782,0.0,4.849,54.0,,'11111222,11111222,99999999' 
WAVCIS,ioos:station:WAVCIS:CSI09:1,2009-09-04T13:00:00Z,29.1015,-89.9782,0.0,5.797,67.0,,'11111222,11111222,99999999' 
WAVCIS,ioos:station:WAVCIS:CSI09:1,2009-09-04T14:00:00Z,29.1015,-89.9782,0.0,5.433,70.0,,'11111222,11111222,99999999' 
WAVCIS,ioos:station:WAVCIS:CSI09:1,2009-09-04T15:00:00Z,29.1015,-89.9782,0.0,4.839,71.0,,'11111222,11111222,99999999' 
WAVCIS,ioos:station:WAVCIS:CSI09:1,2009-09-04T16:00:00Z,29.1015,-89.9782,0.0,6.475,65.0,,'11111222,11111222,99999999' 
WAVCIS,ioos:station:WAVCIS:CSI09:1,2009-09-04T17:00:00Z,29.1015,-89.9782,0.0,7.13,63.0,,'11111222,11111222,99999999' 
WAVCIS,ioos:station:WAVCIS:CSI09:1,2009-09-04T18:00:00Z,29.1015,-89.9782,0.0,6.321,72.0,,'11111222,11111222,99999999' 
WAVCIS,ioos:station:WAVCIS:CSI09:1,2009-09-04T19:00:00Z,29.1015,-89.9782,0.0,5.28,67.0,,'11111222,11111222,99999999' 
WAVCIS,ioos:station:WAVCIS:CSI09:1,2009-09-04T20:00:00Z,29.1015,-89.9782,0.0,6.038,68.0,,'11111222,11111222,99999999' 
WAVCIS,ioos:station:WAVCIS:CSI09:1,2009-09-04T21:00:00Z,29.1015,-89.9782,0.0,5.292,71.0,,'11111222,11111222,99999999' 
WAVCIS,ioos:station:WAVCIS:CSI09:1,2009-09-04T22:00:00Z,29.1015,-89.9782,0.0,5.415,72.0,,'11111222,11111222,99999999' 
WAVCIS,ioos:station:WAVCIS:CSI09:1,2009-09-04T23:00:00Z,29.1015,-89.9782,0.0,6.131,82.0,,'11111222,11111222,99999999' 
WAVCIS,ioos:station:WAVCIS:CSI09:1,2009-09-05T00:00:00Z,29.1015,-89.9782,0.0,4.504,70.0,,'11111222,11111222,99999999' 
WAVCIS,ioos:station:WAVCIS:CSI09:1,2009-09-05T01:00:00Z,29.1015,-89.9782,0.0,4.232,66.0,,'11111222,11111222,99999999' 
WAVCIS,ioos:station:WAVCIS:CSI09:1,2009-09-05T02:00:00Z,29.1015,-89.9782,0.0,4.972,66.0,,'11111222,11111222,99999999' 
WAVCIS,ioos:station:WAVCIS:CSI09:1,2009-09-05T03:00:00Z,29.1015,-89.9782,0.0,6.326,77.0,,'11111222,11111222,99999999' 
WAVCIS,ioos:station:WAVCIS:CSI09:1,2009-09-05T04:00:00Z,29.1015,-89.9782,0.0,4.771,75.0,,'11111222,11111222,99999999' 
WAVCIS,ioos:station:WAVCIS:CSI09:1,2009-09-05T05:00:00Z,29.1015,-89.9782,0.0,3.937,107.0,,'11111222,11111222,99999999' 
WAVCIS,ioos:station:WAVCIS:CSI09:1,2009-09-05T06:00:00Z,29.1015,-89.9782,0.0,3.321,128.0,,'11111222,11111222,99999999' 
WAVCIS,ioos:station:WAVCIS:CSI09:1,2009-09-05T07:00:00Z,29.1015,-89.9782,0.0,2.508,150.0,,'11111222,11111222,99999999' 
WAVCIS,ioos:station:WAVCIS:CSI09:1,2009-09-05T08:00:00Z,29.1015,-89.9782,0.0,2.815,141.0,,'11111222,11111222,99999999' 
WAVCIS,ioos:station:WAVCIS:CSI09:1,2009-09-05T09:00:00Z,29.1015,-89.9782,0.0,2.953,188.0,,'11111222,11111222,99999999' 
WAVCIS,ioos:station:WAVCIS:CSI09:1,2009-09-05T10:00:00Z,29.1015,-89.9782,0.0,0.714,168.0,,'11111222,11111222,99999999' 
WAVCIS,ioos:station:WAVCIS:CSI09:1,2009-09-05T11:00:00Z,29.1015,-89.9782,0.0,4.993,23.0,,'11111222,11111222,99999999' 
WAVCIS,ioos:station:WAVCIS:CSI09:1,2009-09-05T12:00:00Z,29.1015,-89.9782,0.0,3.075,330.0,,'11111222,11111222,99999999' 
WAVCIS,ioos:station:WAVCIS:CSI09:1,2009-09-05T13:00:00Z,29.1015,-89.9782,0.0,2.505,76.0,,'11111222,11111222,99999999' 
WAVCIS,ioos:station:WAVCIS:CSI09:1,2009-09-05T14:00:00Z,29.1015,-89.9782,0.0,0.756,252.0,,'11111222,11111222,99999999' 
WAVCIS,ioos:station:WAVCIS:CSI09:1,2009-09-05T15:00:00Z,29.1015,-89.9782,0.0,4.549,163.0,,'11111222,11111222,99999999' 
WAVCIS,ioos:station:WAVCIS:CSI09:1,2009-09-05T16:00:00Z,29.1015,-89.9782,0.0,3.167,139.0,,'11111222,11111222,99999999' 
WAVCIS,ioos:station:WAVCIS:CSI09:1,2009-09-05T17:00:00Z,29.1015,-89.9782,0.0,1.542,163.0,,'11111222,11111222,99999999' 
WAVCIS,ioos:station:WAVCIS:CSI09:1,2009-09-05T18:00:00Z,29.1015,-89.9782,0.0,1.614,142.0,,'11111222,11111222,99999999' 
WAVCIS,ioos:station:WAVCIS:CSI09:1,2009-09-05T19:00:00Z,29.1015,-89.9782,0.0,2.87,154.0,,'11111222,11111222,99999999' 
WAVCIS,ioos:station:WAVCIS:CSI09:1,2009-09-05T20:00:00Z,29.1015,-89.9782,0.0,2.69,134.0,,'11111222,11111222,99999999' 
WAVCIS,ioos:station:WAVCIS:CSI09:1,2009-09-05T21:00:00Z,29.1015,-89.9782,0.0,3.91,152.0,,'11111222,11111222,99999999' 
WAVCIS,ioos:station:WAVCIS:CSI09:1,2009-09-05T22:00:00Z,29.1015,-89.9782,0.0,2.563,145.0,,'11111222,11111222,99999999' 
WAVCIS,ioos:station:WAVCIS:CSI09:1,2009-09-05T23:00:00Z,29.1015,-89.9782,0.0,3.836,134.0,,'11111222,11111222,99999999' 
WAVCIS,ioos:station:WAVCIS:CSI09:1,2009-09-06T00:00:00Z,29.1015,-89.9782,0.0,4.913,145.0,,'11111222,11111222,99999999' 
WAVCIS,ioos:station:WAVCIS:CSI09:1,2009-09-06T01:00:00Z,29.1015,-89.9782,0.0,4.37,142.0,,'11111222,11111222,99999999' 
WAVCIS,ioos:station:WAVCIS:CSI09:1,2009-09-06T02:00:00Z,29.1015,-89.9782,0.0,4.313,136.0,,'11111222,11111222,99999999' 
WAVCIS,ioos:station:WAVCIS:CSI09:1,2009-09-06T03:00:00Z,29.1015,-89.9782,0.0,4.272,139.0,,'11111222,11111222,99999999' 
WAVCIS,ioos:station:WAVCIS:CSI09:1,2009-09-06T04:00:00Z,29.1015,-89.9782,0.0,5.7,157.0,,'11111222,11111222,99999999' 
WAVCIS,ioos:station:WAVCIS:CSI09:1,2009-09-06T05:00:00Z,29.1015,-89.9782,0.0,5.45,150.0,,'11111222,11111222,99999999' 
WAVCIS,ioos:station:WAVCIS:CSI09:1,2009-09-06T06:00:00Z,29.1015,-89.9782,0.0,3.968,151.0,,'11111222,11111222,99999999' 
WAVCIS,ioos:station:WAVCIS:CSI09:1,2009-09-06T07:00:00Z,29.1015,-89.9782,0.0,4.679,164.0,,'11111222,11111222,99999999' 
WAVCIS,ioos:station:WAVCIS:CSI09:1,2009-09-06T08:00:00Z,29.1015,-89.9782,0.0,4.375,148.0,,'11111222,11111222,99999999' 
WAVCIS,ioos:station:WAVCIS:CSI09:1,2009-09-06T09:00:00Z,29.1015,-89.9782,0.0,2.264,150.0,,'11111222,11111222,99999999' 
WAVCIS,ioos:station:WAVCIS:CSI09:1,2009-09-06T10:00:00Z,29.1015,-89.9782,0.0,2.835,118.0,,'11111222,11111222,99999999' 
WAVCIS,ioos:station:WAVCIS:CSI09:1,2009-09-06T11:00:00Z,29.1015,-89.9782,0.0,2.708,224.0,,'11111222,11111222,99999999' 
WAVCIS,ioos:station:WAVCIS:CSI09:1,2009-09-06T12:00:00Z,29.1015,-89.9782,0.0,1.972,228.0,,'11111222,11111222,99999999' 
WAVCIS,ioos:station:WAVCIS:CSI09:1,2009-09-06T13:00:00Z,29.1015,-89.9782,0.0,1.061,188.0,,'11111222,11111222,99999999' 
WAVCIS,ioos:station:WAVCIS:CSI09:1,2009-09-06T14:00:00Z,29.1015,-89.9782,0.0,4.635,172.0,,'11111222,11111222,99999999' 
WAVCIS,ioos:station:WAVCIS:CSI09:1,2009-09-06T15:00:00Z,29.1015,-89.9782,0.0,1.903,211.0,,'11111222,11111222,99999999' 
WAVCIS,ioos:station:WAVCIS:CSI09:1,2009-09-06T16:00:00Z,29.1015,-89.9782,0.0,4.296,168.0,,'11111222,11111222,99999999' 
WAVCIS,ioos:station:WAVCIS:CSI09:1,2009-09-06T17:00:00Z,29.1015,-89.9782,0.0,3.584,163.0,,'11111222,11111222,99999999' 
WAVCIS,ioos:station:WAVCIS:CSI09:1,2009-09-06T18:00:00Z,29.1015,-89.9782,0.0,4.334,167.0,,'11111222,11111222,99999999' 
WAVCIS,ioos:station:WAVCIS:CSI09:1,2009-09-06T19:00:00Z,29.1015,-89.9782,0.0,5.489,154.0,,'11111222,11111222,99999999' 
WAVCIS,ioos:station:WAVCIS:CSI09:1,2009-09-06T20:00:00Z,29.1015,-89.9782,0.0,5.625,174.0,,'11111222,11111222,99999999' 
WAVCIS,ioos:station:WAVCIS:CSI09:1,2009-09-06T21:00:00Z,29.1015,-89.9782,0.0,5.862,166.0,,'11111222,11111222,99999999' 
WAVCIS,ioos:station:WAVCIS:CSI09:1,2009-09-06T22:00:00Z,29.1015,-89.9782,0.0,4.953,168.0,,'11111222,11111222,99999999' 
WAVCIS,ioos:station:WAVCIS:CSI09:1,2009-09-06T23:00:00Z,29.1015,-89.9782,0.0,3.387,154.0,,'11111222,11111222,99999999' 
WAVCIS,ioos:station:WAVCIS:CSI09:1,2009-09-07T00:00:00Z,29.1015,-89.9782,0.0,1.878,121.0,,'11111222,11111222,99999999' 
WAVCIS,ioos:station:WAVCIS:CSI09:1,2009-09-07T01:00:00Z,29.1015,-89.9782,0.0,4.902,87.0,,'11111222,11111222,99999999' 
WAVCIS,ioos:station:WAVCIS:CSI09:1,2009-09-07T02:00:00Z,29.1015,-89.9782,0.0,3.312,199.0,,'11111222,11111222,99999999' 
WAVCIS,ioos:station:WAVCIS:CSI09:1,2009-09-07T03:00:00Z,29.1015,-89.9782,0.0,6.674,146.0,,'11111222,11111222,99999999' 
WAVCIS,ioos:station:WAVCIS:CSI09:1,2009-09-07T04:00:00Z,29.1015,-89.9782,0.0,6.228,149.0,,'11111222,11111222,99999999' 
WAVCIS,ioos:station:WAVCIS:CSI09:1,2009-09-07T05:00:00Z,29.1015,-89.9782,0.0,5.922,144.0,,'11111222,11111222,99999999' 
WAVCIS,ioos:station:WAVCIS:CSI09:1,2009-09-07T06:00:00Z,29.1015,-89.9782,0.0,2.342,153.0,,'11111222,11111222,99999999' 
WAVCIS,ioos:station:WAVCIS:CSI09:1,2009-09-07T07:00:00Z,29.1015,-89.9782,0.0,3.264,144.0,,'11111222,11111222,99999999' 
WAVCIS,ioos:station:WAVCIS:CSI09:1,2009-09-07T08:00:00Z,29.1015,-89.9782,0.0,3.792,155.0,,'11111222,11111222,99999999' 
WAVCIS,ioos:station:WAVCIS:CSI09:1,2009-09-07T09:00:00Z,29.1015,-89.9782,0.0,2.965,157.0,,'11111222,11111222,99999999' 
WAVCIS,ioos:station:WAVCIS:CSI09:1,2009-09-07T10:00:00Z,29.1015,-89.9782,0.0,1.874,126.0,,'11111222,11111222,99999999' 
WAVCIS,ioos:station:WAVCIS:CSI09:1,2009-09-07T11:00:00Z,29.1015,-89.9782,0.0,6.248,113.0,,'11111222,11111222,99999999' 
WAVCIS,ioos:station:WAVCIS:CSI09:1,2009-09-07T12:00:00Z,29.1015,-89.9782,0.0,3.472,109.0,,'11111222,11111222,99999999' 
WAVCIS,ioos:station:WAVCIS:CSI09:1,2009-09-07T13:00:00Z,29.1015,-89.9782,0.0,3.518,115.0,,'11111222,11111222,99999999' 
WAVCIS,ioos:station:WAVCIS:CSI09:1,2009-09-07T14:00:00Z,29.1015,-89.9782,0.0,2.392,100.0,,'11111222,11111222,99999999' 
WAVCIS,ioos:station:WAVCIS:CSI09:1,2009-09-07T15:00:00Z,29.1015,-89.9782,0.0,1.586,97.0,,'11111222,11111222,99999999' 
WAVCIS,ioos:station:WAVCIS:CSI09:1,2009-09-07T16:00:00Z,29.1015,-89.9782,0.0,2.177,87.0,,'11111222,11111222,99999999' 
WAVCIS,ioos:station:WAVCIS:CSI09:1,2009-09-07T17:00:00Z,29.1015,-89.9782,0.0,2.072,95.0,,'11111222,11111222,99999999' 
WAVCIS,ioos:station:WAVCIS:CSI09:1,2009-09-07T18:00:00Z,29.1015,-89.9782,0.0,2.691,97.0,,'11111222,11111222,99999999' 
WAVCIS,ioos:station:WAVCIS:CSI09:1,2009-09-07T19:00:00Z,29.1015,-89.9782,0.0,2.718,97.0,,'11111222,11111222,99999999' 
WAVCIS,ioos:station:WAVCIS:CSI09:1,2009-09-07T20:00:00Z,29.1015,-89.9782,0.0,2.895,110.0,,'11111222,11111222,99999999' 
WAVCIS,ioos:station:WAVCIS:CSI09:1,2009-09-07T21:00:00Z,29.1015,-89.9782,0.0,4.018,112.0,,'11111222,11111222,99999999' 
WAVCIS,ioos:station:WAVCIS:CSI09:1,2009-09-07T22:00:00Z,29.1015,-89.9782,0.0,3.098,108.0,,'11111222,11111222,99999999' 
WAVCIS,ioos:station:WAVCIS:CSI09:1,2009-09-07T23:00:00Z,29.1015,-89.9782,0.0,3.32,129.0,,'11111222,11111222,99999999' 
WAVCIS,ioos:station:WAVCIS:CSI09:1,2009-09-08T00:00:00Z,29.1015,-89.9782,0.0,4.433,140.0,,'11111222,11111222,99999999' 
WAVCIS,ioos:station:WAVCIS:CSI09:1,2009-09-08T01:00:00Z,29.1015,-89.9782,0.0,3.047,110.0,,'11111222,11111222,99999999' 
WAVCIS,ioos:station:WAVCIS:CSI09:1,2009-09-08T02:00:00Z,29.1015,-89.9782,0.0,3.676,132.0,,'11111222,11111222,99999999' 
WAVCIS,ioos:station:WAVCIS:CSI09:1,2009-09-08T03:00:00Z,29.1015,-89.9782,0.0,3.857,144.0,,'11111222,11111222,99999999' 
WAVCIS,ioos:station:WAVCIS:CSI09:1,2009-09-08T04:00:00Z,29.1015,-89.9782,0.0,3.212,128.0,,'11111222,11111222,99999999' 
WAVCIS,ioos:station:WAVCIS:CSI09:1,2009-09-08T05:00:00Z,29.1015,-89.9782,0.0,2.44,131.0,,'11111222,11111222,99999999' 
WAVCIS,ioos:station:WAVCIS:CSI09:1,2009-09-08T06:00:00Z,29.1015,-89.9782,0.0,2.78,144.0,,'11111222,11111222,99999999' 
WAVCIS,ioos:station:WAVCIS:CSI09:1,2009-09-08T07:00:00Z,29.1015,-89.9782,0.0,1.682,120.0,,'11111222,11111222,99999999' 
WAVCIS,ioos:station:WAVCIS:CSI09:1,2009-09-08T08:00:00Z,29.1015,-89.9782,0.0,1.994,95.0,,'11111222,11111222,99999999' 
WAVCIS,ioos:station:WAVCIS:CSI09:1,2009-09-08T09:00:00Z,29.1015,-89.9782,0.0,2.976,100.0,,'11111222,11111222,99999999' 
WAVCIS,ioos:station:WAVCIS:CSI09:1,2009-09-08T10:00:00Z,29.1015,-89.9782,0.0,3.961,109.0,,'11111222,11111222,99999999' 
WAVCIS,ioos:station:WAVCIS:CSI09:1,2009-09-08T11:00:00Z,29.1015,-89.9782,0.0,3.637,114.0,,'11111222,11111222,99999999' 
WAVCIS,ioos:station:WAVCIS:CSI09:1,2009-09-08T12:00:00Z,29.1015,-89.9782,0.0,3.765,98.0,,'11111222,11111222,99999999' 
WAVCIS,ioos:station:WAVCIS:CSI09:1,2009-09-08T13:00:00Z,29.1015,-89.9782,0.0,3.831,85.0,,'11111222,11111222,99999999' 
WAVCIS,ioos:station:WAVCIS:CSI09:1,2009-09-08T14:00:00Z,29.1015,-89.9782,0.0,3.472,94.0,,'11111222,11111222,99999999' 
WAVCIS,ioos:station:WAVCIS:CSI09:1,2009-09-08T15:00:00Z,29.1015,-89.9782,0.0,4.616,123.0,,'11111222,11111222,99999999' 
WAVCIS,ioos:station:WAVCIS:CSI09:1,2009-09-08T16:00:00Z,29.1015,-89.9782,0.0,4.14,128.0,,'11111222,11111222,99999999' 
WAVCIS,ioos:station:WAVCIS:CSI09:1,2009-09-08T17:00:00Z,29.1015,-89.9782,0.0,3.18,146.0,,'11111222,11111222,99999999' 
WAVCIS,ioos:station:WAVCIS:CSI09:1,2009-09-08T18:00:00Z,29.1015,-89.9782,0.0,3.932,148.0,,'11111222,11111222,99999999' 
WAVCIS,ioos:station:WAVCIS:CSI09:1,2009-09-08T19:00:00Z,29.1015,-89.9782,0.0,4.327,160.0,,'11111222,11111222,99999999' 
WAVCIS,ioos:station:WAVCIS:CSI09:1,2009-09-08T20:00:00Z,29.1015,-89.9782,0.0,3.935,154.0,,'11111222,11111222,99999999' 
WAVCIS,ioos:station:WAVCIS:CSI09:1,2009-09-08T21:00:00Z,29.1015,-89.9782,0.0,2.727,128.0,,'11111222,11111222,99999999' 
WAVCIS,ioos:station:WAVCIS:CSI09:1,2009-09-08T22:00:00Z,29.1015,-89.9782,0.0,3.347,134.0,,'11111222,11111222,99999999' 
WAVCIS,ioos:station:WAVCIS:CSI09:1,2009-09-08T23:00:00Z,29.1015,-89.9782,0.0,4.411,130.0,,'11111222,11111222,99999999' 
WAVCIS,ioos:station:WAVCIS:CSI09:1,2009-09-09T00:00:00Z,29.1015,-89.9782,0.0,3.874,119.0,,'11111222,11111222,99999999' 
WAVCIS,ioos:station:WAVCIS:CSI09:1,2009-09-09T01:00:00Z,29.1015,-89.9782,0.0,4.184,119.0,,'11111222,11111222,99999999' 
WAVCIS,ioos:station:WAVCIS:CSI09:1,2009-09-09T02:00:00Z,29.1015,-89.9782,0.0,4.08,131.0,,'11111222,11111222,99999999' 
WAVCIS,ioos:station:WAVCIS:CSI09:1,2009-09-09T03:00:00Z,29.1015,-89.9782,0.0,4.129,134.0,,'11111222,11111222,99999999' 
WAVCIS,ioos:station:WAVCIS:CSI09:1,2009-09-09T04:00:00Z,29.1015,-89.9782,0.0,3.792,130.0,,'11111222,11111222,99999999' 
WAVCIS,ioos:station:WAVCIS:CSI09:1,2009-09-09T05:00:00Z,29.1015,-89.9782,0.0,3.595,134.0,,'11111222,11111222,99999999' 
WAVCIS,ioos:station:WAVCIS:CSI09:1,2009-09-09T06:00:00Z,29.1015,-89.9782,0.0,3.252,132.0,,'11111222,11111222,99999999' 
WAVCIS,ioos:station:WAVCIS:CSI09:1,2009-09-09T07:00:00Z,29.1015,-89.9782,0.0,3.468,116.0,,'11111222,11111222,99999999' 